When you browse on this site, cookies collect data to enhance your experience and personalize the content and advertising you see.
Visit our Privacy Policy to learn more. By continuing to use the site, you agree to this use of cookies and data.
  • în România
  • Lista ţărilor
  • Pe 7 zile
  • Temperatura apei
  • Meteo pe hartă
  • Widget-uri
  • user-avatar
    Intrare

    Meteo pe oră la Sopot

    Astăzi, 21 August, Miercuri

    Timp Temperatura Precipitaţii Vânt Presiune Umiditate
    00:00 +19°C° 0 mm 2 m/s 766 mmHg 61%
    01:00 +19°C° 0 mm 3 m/s 766 mmHg 65%
    02:00 +18°C° 1.2 mm 3 m/s 766 mmHg 73%
    03:00 +17°C° 1.2 mm 3 m/s 766 mmHg 82%
    04:00 +16°C° 1.2 mm 3 m/s 767 mmHg 90%
    05:00 +16°C° 0.4 mm 2 m/s 767 mmHg 90%
    06:00 +16°C° 0.4 mm 2 m/s 767 mmHg 89%
    07:00 +16°C° 0.4 mm 1 m/s 767 mmHg 89%
    08:00 +16°C° 0.1 mm 2 m/s 767 mmHg 86%
    09:00 +17°C° 0.1 mm 2 m/s 768 mmHg 83%
    10:00 +17°C° 0.1 mm 2 m/s 768 mmHg 80%
    11:00 +18°C° 0.2 mm 2 m/s 768 mmHg 75%
    12:00 +19°C° 0.2 mm 2 m/s 768 mmHg 71%
    13:00 +20°C° 0.2 mm 2 m/s 768 mmHg 67%
    14:00 +21°C° 0.1 mm 2 m/s 768 mmHg 62%
    15:00 +22°C° 0.1 mm 3 m/s 768 mmHg 58%
    16:00 +22°C° 0.1 mm 3 m/s 768 mmHg 53%
    17:00 +21°C° 0 mm 3 m/s 768 mmHg 60%
    18:00 +19°C° 0 mm 3 m/s 768 mmHg 67%
    19:00 +17°C° 0 mm 4 m/s 769 mmHg 74%
    20:00 +16°C° 0 mm 3 m/s 769 mmHg 78%
    21:00 +16°C° 0 mm 3 m/s 769 mmHg 81%
    22:00 +14°C° 0 mm 3 m/s 769 mmHg 85%
    23:00 +14°C° 0 mm 3 m/s 770 mmHg 84%

    Mâine, 22 August, Joi

    Timp Temperatura Precipitaţii Vânt Presiune Umiditate
    00:00 +13°C° 0 mm 3 m/s 770 mmHg 84%
    01:00 +13°C° 0 mm 3 m/s 770 mmHg 84%
    02:00 +13°C° 0 mm 3 m/s 770 mmHg 86%
    03:00 +13°C° 0 mm 3 m/s 770 mmHg 88%
    04:00 +13°C° 0 mm 3 m/s 770 mmHg 90%
    05:00 +14°C° 0 mm 3 m/s 770 mmHg 86%
    06:00 +16°C° 0 mm 2 m/s 771 mmHg 81%
    07:00 +17°C° 0 mm 2 m/s 771 mmHg 77%
    08:00 +19°C° 0 mm 2 m/s 771 mmHg 68%
    09:00 +21°C° 0 mm 1 m/s 771 mmHg 60%
    10:00 +23°C° 0 mm 1 m/s 771 mmHg 51%
    11:00 +23°C° 0 mm 1 m/s 771 mmHg 48%
    12:00 +24°C° 0 mm 1 m/s 771 mmHg 45%
    13:00 +25°C° 0 mm 2 m/s 771 mmHg 42%
    14:00 +24°C° 0 mm 2 m/s 770 mmHg 44%
    15:00 +24°C° 0 mm 2 m/s 770 mmHg 47%
    16:00 +24°C° 0 mm 3 m/s 770 mmHg 50%
    17:00 +22°C° 0 mm 3 m/s 770 mmHg 56%
    18:00 +20°C° 0 mm 3 m/s 770 mmHg 62%
    19:00 +19°C° 0 mm 3 m/s 770 mmHg 68%
    20:00 +18°C° 0 mm 3 m/s 770 mmHg 69%
    21:00 +18°C° 0 mm 3 m/s 770 mmHg 70%
    22:00 +17°C° 0 mm 3 m/s 770 mmHg 71%
    23:00 +17°C° 0 mm 3 m/s 770 mmHg 71%

    Poimâine, 23 August, Vineri

    Timp Temperatura Precipitaţii Vânt Presiune Umiditate
    00:00 +17°C° 0 mm 3 m/s 770 mmHg 71%
    01:00 +16°C° 0 mm 3 m/s 770 mmHg 70%
    02:00 +16°C° 0 mm 3 m/s 770 mmHg 71%
    03:00 +16°C° 0 mm 3 m/s 770 mmHg 73%
    04:00 +15°C° 0 mm 4 m/s 770 mmHg 74%
    05:00 +17°C° 0 mm 4 m/s 770 mmHg 72%
    06:00 +18°C° 0 mm 4 m/s 770 mmHg 70%
    07:00 +19°C° 0 mm 4 m/s 770 mmHg 69%
    08:00 +21°C° 0 mm 4 m/s 770 mmHg 62%
    09:00 +23°C° 0 mm 4 m/s 770 mmHg 56%
    10:00 +25°C° 0 mm 3 m/s 770 mmHg 50%
    11:00 +26°C° 0 mm 3 m/s 770 mmHg 47%
    12:00 +26°C° 0 mm 3 m/s 770 mmHg 44%
    13:00 +27°C° 0 mm 3 m/s 770 mmHg 42%
    14:00 +27°C° 0 mm 3 m/s 770 mmHg 42%
    15:00 +27°C° 0 mm 3 m/s 769 mmHg 42%
    16:00 +27°C° 0 mm 3 m/s 769 mmHg 42%
    17:00 +25°C° 0 mm 3 m/s 769 mmHg 49%
    18:00 +22°C° 0 mm 3 m/s 769 mmHg 56%
    19:00 +20°C° 0 mm 3 m/s 768 mmHg 62%
    20:00 +20°C° 0 mm 3 m/s 769 mmHg 63%
    21:00 +19°C° 0 mm 2 m/s 769 mmHg 64%
    22:00 +18°C° 0 mm 2 m/s 769 mmHg 65%
    23:00 +18°C° 0 mm 2 m/s 769 mmHg 65%

    24 August, Sâmbătă

    Timp Temperatura Precipitaţii Vânt Presiune Umiditate
    00:00 +18°C° 0 mm 2 m/s 769 mmHg 66%
    01:00 +17°C° 0 mm 3 m/s 769 mmHg 66%
    02:00 +17°C° 0 mm 3 m/s 768 mmHg 68%
    03:00 +17°C° 0 mm 3 m/s 768 mmHg 69%
    04:00 +17°C° 0 mm 3 m/s 768 mmHg 70%
    05:00 +18°C° 0 mm 3 m/s 768 mmHg 68%
    06:00 +19°C° 0 mm 2 m/s 768 mmHg 66%
    07:00 +20°C° 0 mm 2 m/s 768 mmHg 64%
    08:00 +21°C° 0 mm 2 m/s 768 mmHg 58%
    09:00 +24°C° 0 mm 2 m/s 768 mmHg 52%
    10:00 +26°C° 0 mm 2 m/s 768 mmHg 47%
    11:00 +26°C° 0 mm 2 m/s 768 mmHg 45%
    12:00 +26°C° 0 mm 2 m/s 768 mmHg 43%
    13:00 +27°C° 0 mm 2 m/s 768 mmHg 41%
    14:00 +27°C° 0 mm 3 m/s 767 mmHg 42%
    15:00 +26°C° 0 mm 3 m/s 767 mmHg 44%
    16:00 +26°C° 0 mm 3 m/s 767 mmHg 46%
    17:00 +24°C° 0 mm 3 m/s 767 mmHg 53%
    18:00 +22°C° 0 mm 3 m/s 767 mmHg 59%
    19:00 +20°C° 0 mm 3 m/s 767 mmHg 66%
    20:00 +19°C° 0 mm 3 m/s 767 mmHg 69%
    21:00 +19°C° 0 mm 3 m/s 767 mmHg 71%
    22:00 +18°C° 0 mm 2 m/s 767 mmHg 73%
    23:00 +18°C° 0 mm 2 m/s 767 mmHg 75%

    25 August, Duminică

    Timp Temperatura Precipitaţii Vânt Presiune Umiditate
    00:00 +17°C° 0 mm 2 m/s 767 mmHg 76%
    01:00 +18°C° 0 mm 1 m/s 767 mmHg 78%
    02:00 +18°C° 0 mm 1 m/s 767 mmHg 77%
    03:00 +16°C° 0 mm 1 m/s 767 mmHg 76%
    04:00 +16°C° 0 mm 1 m/s 767 mmHg 75%
    05:00 +18°C° 0 mm 1 m/s 767 mmHg 71%
    06:00 +18°C° 0 mm 2 m/s 767 mmHg 68%
    07:00 +20°C° 0 mm 2 m/s 767 mmHg 64%
    08:00 +21°C° 0 mm 3 m/s 767 mmHg 59%
    09:00 +22°C° 0 mm 3 m/s 768 mmHg 55%
    10:00 +25°C° 0 mm 4 m/s 768 mmHg 50%
    11:00 +25°C° 0 mm 4 m/s 767 mmHg 49%
    12:00 +26°C° 0 mm 4 m/s 767 mmHg 48%
    13:00 +26°C° 0 mm 5 m/s 767 mmHg 47%
    14:00 +26°C° 0 mm 5 m/s 767 mmHg 49%
    15:00 +26°C° 0 mm 5 m/s 767 mmHg 51%
    16:00 +26°C° 0 mm 5 m/s 766 mmHg 52%
    17:00 +23°C° 0 mm 5 m/s 766 mmHg 58%
    18:00 +22°C° 0 mm 5 m/s 766 mmHg 65%
    19:00 +21°C° 0 mm 5 m/s 766 mmHg 71%
    20:00 +20°C° 0 mm 5 m/s 766 mmHg 73%
    21:00 +19°C° 0 mm 4 m/s 766 mmHg 76%
    22:00 +19°C° 0 mm 4 m/s 766 mmHg 78%
    23:00 +18°C° 0 mm 4 m/s 766 mmHg 79%

    26 August, Luni

    Timp Temperatura Precipitaţii Vânt Presiune Umiditate
    00:00 +17°C° 0 mm 4 m/s 766 mmHg 79%
    01:00 +17°C° 0 mm 4 m/s 766 mmHg 79%
    02:00 +17°C° 0 mm 4 m/s 765 mmHg 80%
    03:00 +15°C° 0 mm 4 m/s 765 mmHg 81%
    04:00 +15°C° 0 mm 4 m/s 765 mmHg 81%
    05:00 +17°C° 0 mm 4 m/s 765 mmHg 78%
    06:00 +18°C° 0 mm 4 m/s 764 mmHg 75%
    07:00 +19°C° 0 mm 4 m/s 764 mmHg 71%
    08:00 +21°C° 0 mm 4 m/s 764 mmHg 67%
    09:00 +23°C° 0 mm 4 m/s 764 mmHg 62%
    10:00 +26°C° 0 mm 4 m/s 764 mmHg 58%
    11:00 +27°C° 0 mm 5 m/s 763 mmHg 56%
    12:00 +28°C° 0 mm 5 m/s 763 mmHg 53%
    13:00 +29°C° 0 mm 5 m/s 762 mmHg 51%
    14:00 +29°C° 0 mm 5 m/s 762 mmHg 51%
    15:00 +29°C° 0 mm 5 m/s 761 mmHg 51%
    16:00 +29°C° 0 mm 5 m/s 760 mmHg 51%
    17:00 +28°C° 0 mm 5 m/s 760 mmHg 57%
    18:00 +27°C° 0 mm 4 m/s 760 mmHg 63%
    19:00 +25°C° 0 mm 4 m/s 760 mmHg 69%
    20:00 +23°C° 0.3 mm 4 m/s 760 mmHg 73%
    21:00 +23°C° 0.3 mm 4 m/s 760 mmHg 77%
    22:00 +22°C° 0.3 mm 4 m/s 760 mmHg 82%
    23:00 +22°C° 0.2 mm 4 m/s 759 mmHg 84%
    Arată mai mult